INSPIRE-SAT 7 (56211 NORAD) Tracking and Keplerian Element Data

This shows tracking and keplerian element data for the satellite.

Feedback or suggestion? Click here.




ElementValue
Catalog56211
NameINSPIRE-SAT 7
Epoch Orbit390
Epoch Day126.93875576
Epoch Year2023
RAAN22.5161
Inclination97.4131
Eccentricity0.0016092
Argument of Perigee150.5774
Mean Anonmoly209.6372
Mean Motion15.23538358
Decay Rate0.00022267
L11 56211U 23054AK 23126.93875576 .00022267 00000+0 92970-3 0 9991
L22 56211 97.4131 22.5161 0016092 150.5774 209.6372 15.23538358 3900



Live tracking and technical data element details for INSPIRE-SAT 7 (NORAD 56211). INSPIRE-SAT 7 can be tracked NOW for your location showing map with azimuth and elevation plus other details from your city location.







IsCatalogInMostPopularTable: catalog: 56211, numindb: 6
Update: records affected: 1



GetName: 56211 INSPIRE-SAT 7

Hit Count: updated at: Wed, 07 Jun 2023 08:47:15 GMT